Weather History for KHIO - January, 2013

Change the Weather History Date:

Thursday, January 24, 2013

  Actual Average Record
Temperature  
Mean Temperature 36 °F 41 °F  
Max Temperature 40 °F 48 °F 63 °F (1935)
Min Temperature 32 °F 34 °F -2 °F (1943)
Degree Days  
Heating Degree Days 29 24  
Month to date heating degree days 728 606  
Since 1 July heating degree days 2585 2727  
Cooling Degree Days 0 0  
Month to date cooling degree days 0 0  
Year to date cooling degree days 0 0  
Moisture  
Dew Point 35 °F    
Average Humidity 93    
Maximum Humidity 100    
Minimum Humidity 85    
Precipitation  
Precipitation 0.12 in 0.17 in 1.13 in (1965)
Month to date precipitation 0.90 4.95  
Year to date precipitation 0.90 4.95  
Snow  
Snow 0.00 in - - ()
Month to date snowfall 0.0  
Since 1 July snowfall 0.0  
Snow Depth 0.00 in    
Sea Level Pressure  
Sea Level Pressure 30.19 in    
Wind  
Wind Speed 1 mph (WSW)    
Max Wind Speed 14 mph    
Max Gust Speed 16 mph    
Visibility 2 miles    
Events Fog , Rain    
T = Trace of Precipitation, MM = Missing Value Source: NWS Daily Summary

Daily Weather History Graph

Daily Weather History Graph

Search for Another Location

Airport or City:

Trip Planner

Search our weather history database for the weather conditions in past years. The results will help you decide how hot, cold, wet, or windy it might be!

Date:

Astronomy

Jan. 24, 2013 Rise Set
Actual Time 7:41 AM PST 5:07 PM PST
Civil Twilight 7:08 AM PST 5:39 PM PST
Nautical Twilight 6:32 AM PST 6:15 PM PST
Astronomical Twilight 5:57 AM PST 6:50 PM PST
Moon 3:13 PM PST (1/24) 5:44 AM PST (1/24)
Length of Visible Light 10h 30m
Length of Day
9h 26m
Waxing Gibbous, 95% of the Moon is Illuminated
Jan 24
Waxing Gibbous
Jan 26
Full
Feb 3
Last Quarter
Feb 9
New
Feb 17
First Quarter

Hourly Weather History & Observations

Time (PST) Temp. Windchill Dew Point Humidity Pressure Visibility Wind Dir Wind Speed Gust Speed Precip Events Conditions
12:53 AM 34.0 °F - 32.0 °F 92% 30.24 in 3.0 mi Calm Calm - N/A   Overcast
1:30 AM 34.0 °F - 33.1 °F 96% 30.24 in 2.5 mi Calm Calm - N/A   Overcast
1:36 AM 34.0 °F - 33.1 °F 96% 30.24 in 3.0 mi Calm Calm - N/A   Overcast
1:53 AM 34.0 °F - 33.1 °F 96% 30.25 in 2.5 mi Calm Calm - N/A   Overcast
2:17 AM 33.1 °F - 33.1 °F 100% 30.24 in 1.0 mi Calm Calm - N/A   Overcast
2:24 AM 33.1 °F - 33.1 °F 100% 30.24 in 0.8 mi Calm Calm - N/A   Overcast
2:53 AM 33.1 °F - 33.1 °F 100% 30.26 in 0.5 mi Calm Calm - N/A Fog Fog
3:01 AM 33.1 °F - 32.0 °F 96% 30.24 in 0.2 mi Calm Calm - N/A Fog Fog
3:39 AM 33.1 °F - 32.0 °F 96% 30.24 in 0.2 mi Calm Calm - N/A Fog Fog
3:50 AM 33.8 °F - 33.8 °F 100% 30.24 in 0.5 mi Calm Calm - N/A Fog Fog
4:53 AM 33.1 °F 30.0 °F 32.0 °F 96% 30.24 in 0.5 mi WNW 3.5 mph - N/A Fog Fog
5:17 AM 33.1 °F 28.7 °F 32.0 °F 96% 30.23 in 0.2 mi WNW 4.6 mph - N/A Fog Fog
5:31 AM 33.1 °F 28.7 °F 33.1 °F 100% 30.23 in 0.5 mi WNW 4.6 mph - N/A Fog Fog
5:53 AM 33.1 °F 28.7 °F 32.0 °F 96% 30.24 in 0.8 mi NW 4.6 mph - N/A   Mist
6:00 AM 33.1 °F 28.7 °F 33.1 °F 100% 30.23 in 0.8 mi West 4.6 mph - N/A   Mist
6:53 AM 33.1 °F - 32.0 °F 96% 30.22 in 0.2 mi Calm Calm - N/A Fog Fog
7:03 AM 33.1 °F - 32.0 °F 96% 30.21 in 0.2 mi Calm Calm - N/A Fog Fog
7:25 AM 33.1 °F - 32.0 °F 96% 30.20 in 0.5 mi Calm Calm - N/A Fog Fog
7:53 AM 33.1 °F - 32.0 °F 96% 30.22 in 0.5 mi Calm Calm - N/A Fog Fog
7:58 AM 33.1 °F - 32.0 °F 96% 30.21 in 1.0 mi Calm Calm - N/A   Overcast
8:53 AM 34.0 °F - 34.0 °F 100% 30.21 in 1.0 mi Calm Calm - N/A   Overcast
8:55 AM 34.0 °F - 34.0 °F 100% 30.20 in 1.0 mi Calm Calm - N/A   Overcast
9:29 AM 35.1 °F - 34.0 °F 96% 30.19 in 0.5 mi Calm Calm - N/A   Overcast
9:53 AM 35.1 °F 32.2 °F 35.1 °F 100% 30.21 in 0.2 mi WSW 3.5 mph - N/A Fog Fog
10:53 AM 36.0 °F - 35.1 °F 97% 30.20 in 0.8 mi Calm Calm - N/A Fog Fog
11:53 AM 37.0 °F - 36.0 °F 96% 30.18 in 0.8 mi Calm Calm - N/A   Overcast
11:55 AM 37.0 °F - 36.0 °F 96% 30.17 in 1.0 mi Calm Calm - N/A   Overcast
12:53 PM 37.0 °F - 36.0 °F 96% 30.15 in 1.0 mi Calm Calm - N/A   Overcast
1:53 PM 37.9 °F - 36.0 °F 93% 30.14 in 1.0 mi Calm Calm - N/A   Overcast
2:06 PM 37.9 °F 34.4 °F 36.0 °F 93% 30.13 in 1.0 mi West 4.6 mph - N/A   Overcast
2:53 PM 39.0 °F - 36.0 °F 89% 30.14 in 4.0 mi Calm Calm - N/A   Overcast
3:29 PM 39.9 °F - 37.0 °F 89% 30.13 in 4.0 mi Calm Calm - N/A   Overcast
3:53 PM 39.0 °F 36.8 °F 37.0 °F 93% 30.13 in 4.0 mi East 3.5 mph - N/A   Overcast
4:02 PM 39.0 °F - 37.0 °F 93% 30.13 in 2.0 mi Calm Calm - N/A   Overcast
4:53 PM 39.0 °F - 37.0 °F 93% 30.15 in 2.0 mi Calm Calm - 0.01 in Rain Light Rain
5:41 PM 37.9 °F 34.4 °F 37.0 °F 97% 30.13 in 2.0 mi East 4.6 mph - 0.04 in Rain Light Rain
5:50 PM 39.2 °F - 37.4 °F 93% 30.14 in 3.0 mi Calm Calm - 0.05 in Rain Light Rain
5:53 PM 39.0 °F - 37.9 °F 96% 30.15 in 3.0 mi Calm Calm - 0.05 in Rain Light Rain
6:53 PM 39.0 °F - 37.0 °F 93% 30.14 in 3.0 mi Calm Calm - 0.05 in Rain Light Rain
7:22 PM 39.0 °F - 37.9 °F 96% 30.13 in 4.0 mi Calm Calm - 0.00 in   Overcast
7:42 PM 39.0 °F 36.8 °F 37.0 °F 93% 30.14 in 3.0 mi South 3.5 mph - 0.00 in   Overcast
7:53 PM 39.0 °F 36.8 °F 37.0 °F 93% 30.14 in 3.0 mi SSE 3.5 mph - 0.00 in   Overcast
8:53 PM 39.0 °F - 37.9 °F 96% 30.15 in 3.0 mi Calm Calm - 0.00 in   Overcast
9:23 PM 39.0 °F 35.7 °F 37.0 °F 93% 30.14 in 3.0 mi SE 4.6 mph - 0.01 in Rain Light Rain
9:53 PM 39.0 °F - 37.9 °F 96% 30.15 in 5.0 mi Calm Calm - 0.01 in   Overcast
10:53 PM 39.0 °F - 37.9 °F 96% 30.15 in 4.0 mi Calm Calm - 0.00 in Rain Light Rain
11:53 PM 39.0 °F - 37.9 °F 96% 30.15 in 3.0 mi Calm Calm - 0.00 in   Overcast